Regional Weather Roundup
Issued by NWS

Home | Current Version | Previous Version | Text Only | Print | Product List | Glossary Off
Versions: 1 2 3 4 5 6 7 8 9 10 11 12 13 14 15 16 17 18 19 20 21 22 23 24 25 26 27 28 29 30 31 32 33 34 35 36 37 38 39 40 41 42 43 44 45 46 47 48 49 50

000
ASUS45 KABQ 282301
RWRNM
WEATHER ROUNDUP FOR NEW MEXICO
NATIONAL WEATHER SERVICE ALBUQUERQUE NM
400 PM MST SUN DEC 28 2014

NOTE: "FAIR" MEANS FEW OR NO CLOUDS BELOW 12,000 FEET AGL WITH NO
       SIGNIFICANT WEATHER OR OBSTRUCTIONS TO VISION.

      THIS PRODUCT IS RELEASED AS TWO VERSIONS.  ONE VERSION NEAR
      THE TOP OF THE HOUR CONTAINING PRELIMINARY DATA FROM ALBUQUERQUE
      AND OTHER STATIONS.  A FINAL VERSION WITH ADDITIONAL DATA IS
      ISSUED ABOUT 10 MINUTES AFTER THE HOUR.

NMZ501-503-504-510>518-290000-
NORTHWEST PLATEAU/NORTHCENTRAL MOUNTAINS

CITY           SKY/WX    TMP DP  RH WIND       PRES   REMARKS
FARMINGTON     CLEAR     30  12  47 SW5       30.07F WCI  25
SANTA FE       PTCLDY    34   9  35 S6        30.01F WCI  29
TAOS           CLEAR     27   9  46 SW13      30.00S WCI  16
ANGEL FIRE     FAIR      23   5  46 W18       29.95R WCI   8

$$
NMZ402-403-502-505>509-290000-
WESTCENTRAL MOUNTAINS/SOUTHWEST MOUNTAINS

CITY           SKY/WX    TMP DP  RH WIND       PRES   REMARKS
GALLUP         MOSUNNY   32  13  45 SW8       30.07S WCI  25
GRANTS         MOSUNNY   38   3  22 NE7       30.06S WCI  33
SILVER CITY    SUNNY     46   9  21 NW13      30.10S

$$
NMZ407-409-411-412-290000-
SOUTHERN DESERTS

CITY           SKY/WX    TMP DP  RH WIND       PRES   REMARKS
LORDSBURG      FAIR      45  18  33 N6        30.11S
DEMING         SUNNY     47  15  27 SW13      30.09F
HOLLOMAN AFB   SUNNY     45  13  27 CALM      30.08F
ALAMOGORDO     SUNNY     46  12  25 CALM      30.09F
T OR C         SUNNY     46  13  26 S8        30.06S

$$
NMZ519>523-290000-
CENTRAL VALLEYS/CENTRAL HIGHLANDS

CITY           SKY/WX    TMP DP  RH WIND       PRES   REMARKS
ALBUQUERQUE    MOCLDY    36  11  35 SE6       30.07F WCI  31
DOUBLE EAGLE   MOCLDY    37   7  28 W3        30.06F
MORIARTY ARPT  FAIR      37   7  28 W13       30.03S WCI  29
CLINES CORNERS CLEAR     29   9  43 W24       29.96S WCI  15
BELEN          FAIR      38  10  30 CALM      30.08S
SOCORRO        FAIR      43   8  24 S8        30.07S

$$
NMZ524>526-539-540-290000-
SOUTHCENTRAL MOUNTAINS

CITY           SKY/WX    TMP DP  RH WIND       PRES   REMARKS
RUIDOSO        NOT AVBL

$$
NMZ527>531-290000-
NORTHEAST HIGHLANDS/NORTHEAST PLAINS

CITY           SKY/WX    TMP DP  RH WIND       PRES   REMARKS
LAS VEGAS      PTCLDY    41  10  28 W10       29.91R
RATON          CLEAR     34  14  43 CALM      29.85S
CLAYTON        CLEAR     42  15  33 S8        29.85S

$$
NMZ532>537-290000-
EASTCENTRAL PLAINS

CITY           SKY/WX    TMP DP  RH WIND       PRES   REMARKS
TUCUMCARI      PTCLDY    44  13  28 W14       29.88R
CANNON AFB     MOCLDY    50  -1  12 W22G30    29.93R
CLOVIS AIRPORT PTCLDY    52   1  12 W21G32    29.91S

$$
NMZ028-029-538-290000-
SOUTHEAST PLAINS

CITY           SKY/WX    TMP DP  RH WIND       PRES   REMARKS
ROSWELL        MOCLDY    51  19  28 SE8       29.99S
ARTESIA        PTCLDY    57  14  18 SW9       29.99S
CARLSBAD       CLEAR     50  28  42 S5        30.00S
HOBBS          CLEAR     46  23  39 SW12      30.02F


$$



USA.gov is the U.S. government's official web portal to all federal, state and local government web resources and services.